SBFLSBPA

Guest
Details From SBFL - Hercillo Luz
To SBPA - Salgado Filho
Flight Number -
Tags Generated
Created
Modified
Stats Distance 196 nm / 363 km
Max Altitude 0 ft / 0 m
Waypoints 3
Social Downloads 5
Likes 0
Share VATSIM

Download

Looking for another format? Having issues loading an existing format? Contact us
Advertisement - Login to hide

Notes

Generated

Route

SBFL TQA SBPA

ID Type Via Altitude Latitude Longitude Leg Dist Tot Dist Heading (true) Name
O SBFL APT - 0 ft / 0 m -27.67664˚ -48.55458˚ - 0 nm - -
TQA NDB - 0 ft / 0 m -29.66850˚ -50.78183˚ 167 nm 167 nm 224° / 225° TAQUARA NDB
O SBPA APT - 0 ft / 0 m -29.99414˚ -51.18327˚ 28 nm 196 nm 227° / 227° -

Altitude Profile

Advertisement - Login to hide

Weather


0- 5 10 15 20 25 30 35+ Temperature / ° C

Clouds and Precipitation
Forecast for 2017-12-16 00:00 UTC. Updated 23 minutes ago

Ground ~20,000 ft ~40,000 ft Winds

SBFL

Details ICAO SBFL (FLN)
Name Hercillo Luz
Region Brazil
Timezone America/Sao_Paulo (UTC-2.0)
Stats Elevation 19 ft / 6 m (AMSL)
Location -27.670487° -48.547180°
Runways 2
Magnetic Variation 19.321° W

METAR

SBFL 152300Z 12003KT 9999 FEW030 24/21 Q1012

Decode

TAF

TAF SBFL 151500Z 1518/1618 03005KT 9999 FEW025 TX29/1518Z TN21/1609Z PROB30 1518/1521 8000 SHRA SCT030 FEW035TCU BECMG 1612/1616 36010KT RMK PDN

Decode

Departure Runways

ID Width Length Bearing (true) Bearing (mag) Surface Threshold Offset Overrun Length
03 148 ft / 45 m 4,939 ft / 1,505 m 11.55° 30.87° Concrete 0 ft / 0 m 0 ft / 0 m
14 148 ft / 45 m 7,543 ft / 2,299 m 121.30° 140.62° Asphalt 720 ft / 219 m 0 ft / 0 m
21 148 ft / 45 m 4,939 ft / 1,505 m 191.55° 210.87° Concrete 0 ft / 0 m 0 ft / 0 m
32 148 ft / 45 m 7,543 ft / 2,299 m 301.29° 320.61° Asphalt 0 ft / 0 m 200 ft / 61 m

SBPA

Details ICAO SBPA (POA)
Name Salgado Filho
Region Brazil
Timezone America/Sao_Paulo (UTC-2.0)
Stats Elevation 11 ft / 3 m (AMSL)
Location -29.994428° -51.171426°
Runways 1
Magnetic Variation 16.879° W

METAR

SBPA 152300Z 11015KT CAVOK 26/16 Q1010

Decode

TAF

Not found

Destination Runways

ID Width Length Bearing (true) Bearing (mag) Surface Threshold Offset Overrun Length
11 138 ft / 42 m 7,487 ft / 2,282 m 91.60° 108.48° Asphalt 0 ft / 0 m 230 ft / 70 m
29 138 ft / 42 m 7,487 ft / 2,282 m 271.59° 288.47° Asphalt 0 ft / 0 m 197 ft / 60 m

Approach Navaids

Runway Type Ident Frequency Range Bearing (true) Bearing (mag) Slope Elevation
11 Localiser IPA 110.30 MHz 18 nm / 33 km 90.92° 107.80° - 11 ft / 3 m (AMSL)
11 Glidescope IPA 110.30 MHz 10 nm / 19 km 91.60° 108.48° 3.00° 11 ft / 3 m (AMSL)

Popular Alternatives